Theta_e
321 325 324 324 334 337 338 338 340 340 339 338 336 340 348 347 356 365 356 347 348 354 336 343 344 342 339 339 342 345 345 345 342 341 340 336 330 326 325 329 333 334 335 335 334 326 325 325 325
321 322 323 328 335 338 338 338 341 339 337 334 339 344 346 355 354 351 351 346 349 353 336 339 340 338 336 337 342 344 345 345 343 341 339 334 330 325 324 328 331 327 323 321 320 323 326 326 326
321 322 325 332 336 338 338 337 340 338 335 335 340 347 349 354 353 354 350 348 352 351 345 337 339 336 335 337 341 343 344 342 340 338 337 332 329 324 323 324 324 323 322 320 321 326 326 326 331
321 322 325 333 336 337 337 338 338 338 335 335 338 347 351 351 349 350 347 347 349 349 350 338 338 334 333 336 338 340 340 339 337 336 334 329 328 324 324 323 323 324 322 321 323 326 326 326 331
320 324 330 335 335 336 337 338 338 338 336 334 338 345 352 353 352 349 347 347 348 348 351 339 337 333 332 333 334 334 334 334 333 330 325 325 324 324 324 323 324 324 321 321 323 326 325 325 327
322 325 331 335 337 337 338 338 338 336 336 333 339 343 351 354 351 350 347 346 347 349 353 338 336 332 332 332 332 332 332 331 328 322 321 322 322 324 324 323 324 323 321 321 323 325 325 325 325
323 328 331 334 336 338 337 336 337 336 336 334 335 341 354 353 352 351 348 347 349 350 351 337 335 333 332 332 332 330 325 323 322 321 321 321 323 325 324 324 324 323 321 321 322 323 323 323 323
322 326 331 333 336 337 337 336 336 335 336 333 338 343 353 353 353 352 349 348 349 349 350 346 337 333 333 333 332 327 324 322 322 322 321 322 323 323 323 325 325 323 322 321 320 321 322 322 322
322 325 330 332 333 335 335 334 333 330 329 332 334 343 353 356 353 352 350 349 349 348 349 347 345 345 344 341 334 330 326 323 323 324 322 322 323 323 325 325 326 323 322 321 320 319 319 320 320
324 326 330 330 330 330 332 330 333 330 329 331 335 341 354 355 352 351 351 349 348 347 348 346 345 346 345 345 341 334 331 327 323 323 324 325 338 341 340 337 324 322 322 322 321 321 320 319 320
323 327 329 331 328 326 326 327 327 328 332 332 334 338 348 352 351 349 348 347 347 347 347 347 347 347 345 345 348 343 344 342 336 335 331 326 338 340 339 340 330 322 322 322 324 323 322 322 331
326 325 327 329 330 328 326 325 328 327 329 329 330 333 344 349 350 348 347 347 347 347 347 348 348 349 347 346 347 347 346 346 346 346 344 339 343 344 343 339 342 340 340 335 338 340 339 337 336
328 326 325 327 328 326 324 325 326 325 325 325 327 327 340 346 347 347 345 346 346 346 347 348 351 351 348 348 347 348 347 348 348 349 350 350 349 348 348 347 346 345 345 344 346 344 344 343 344
327 326 327 327 325 323 324 327 329 325 326 324 325 326 329 346 347 346 347 347 347 348 349 350 351 351 345 342 348 349 350 349 350 350 350 351 350 349 349 349 349 348 346 345 346 345 346 348 348
327 327 326 325 324 326 328 329 331 327 324 326 325 325 328 330 344 348 347 349 349 350 351 352 353 354 344 340 344 351 351 350 351 350 351 353 350 350 350 348 347 347 348 348 347 347 346 346 345
326 327 328 325 326 329 329 333 330 329 328 327 324 324 327 327 329 337 345 350 351 349 349 352 350 353 353 355 355 353 353 353 352 352 352 352 351 346 350 349 349 351 351 349 350 349 347 347 347
327 331 330 328 329 331 332 334 330 329 328 328 324 324 326 326 326 327 328 331 333 338 341 345 348 348 355 357 357 356 355 355 353 351 351 352 350 346 340 350 350 351 351 347 347 347 348 346 346
329 330 328 328 330 329 330 331 330 326 327 328 326 324 326 327 325 325 325 324 325 327 334 340 341 344 347 353 356 354 353 354 353 351 351 351 350 348 338 351 349 351 349 345 345 346 345 345 345
324 322 325 325 324 325 323 326 325 325 324 327 325 323 324 326 326 324 324 324 324 325 328 319 324 339 343 348 348 349 348 349 350 350 349 351 350 350 349 351 352 348 346 346 347 346 345 344 343
320 320 319 320 320 321 321 320 319 321 323 325 324 323 324 324 325 325 324 324 326 327 327 321 319 322 324 344 344 343 344 345 345 348 349 352 351 351 351 351 348 346 345 347 345 344 341 339 337
319 320 319 319 320 320 320 321 320 320 320 320 322 322 322 323 323 323 323 325 326 327 327 321 319 322 319 340 346 347 348 347 347 348 350 350 350 349 344 349 346 341 330 332 332 336 339 336 336
319 320 320 320 321 322 321 323 322 322 322 322 321 322 322 322 323 323 325 325 326 327 328 331 331 329 329 329 343 347 346 344 344 347 349 350 351 348 343 333 321 318 330 332 332 327 332 333 331
319 320 320 321 321 323 322 320 320 323 322 322 322 322 322 323 325 326 327 327 328 328 329 333 335 340 343 337 340 347 346 341 346 348 349 346 341 338 329 318 320 318 318 323 320 317 315 329 331
320 320 321 321 322 322 322 323 322 322 323 323 323 322 322 325 325 326 328 328 329 330 329 331 338 343 347 349 346 348 347 344 343 345 343 339 336 331 327 326 319 318 317 315 315 317 316 314 319
320 322 323 322 322 322 322 323 323 324 323 323 323 323 325 326 325 326 328 328 330 331 332 332 337 343 346 349 348 348 349 349 346 341 338 334 332 331 329 319 319 320 317 317 318 319 316 317 319
321 322 322 322 322 322 322 323 323 324 324 325 324 325 325 324 326 328 330 330 330 332 333 333 336 341 344 345 345 346 347 347 342 338 333 330 328 329 329 327 322 317 325 319 316 317 318 321 322
321 322 322 324 324 324 324 326 326 324 325 324 325 325 326 326 326 327 330 332 335 336 337 336 338 340 341 343 344 345 343 336 331 328 328 328 327 326 328 329 324 326 322 320 319 319 320 320 318
322 321 323 323 325 324 324 325 325 326 324 324 326 326 325 325 325 326 327 330 331 333 334 334 334 335 334 334 334 333 333 332 332 332 328 327 327 328 328 328 329 331 329 327 325 325 324 322 321
321 322 322 323 324 326 325 324 328 327 326 326 327 326 325 324 324 325 325 325 326 327 328 329 328 328 328 328 328 328 328 328 328 328 328 328 328 329 330 329 329 329 329 329 328 327 324 323 325
322 323 323 325 325 323 326 330 326 327 327 327 325 324 324 324 324 324 324 325 325 324 324 324 324 324 323 323 324 325 324 324 324 325 325 326 326 327 327 327 327 327 326 327 328 327 327 326 326
Wind_Speed
6 10 7 9 8 8 18 21 7 5 8 3 5 10 12 18 10 11 11 10 19 19 22 21 21 20 18 16 16 18 18 16 14 11 9 8 9 11 12 12 12 10 8 6 4 4 5 5 7
8 9 11 11 11 15 15 22 13 10 7 5 3 6 8 15 15 15 14 18 19 20 21 21 20 19 17 16 17 19 18 16 13 11 9 8 9 11 12 11 10 8 6 5 5 5 4 5 5
9 10 15 10 15 17 19 23 11 10 4 6 4 7 3 11 12 15 17 21 19 20 21 20 19 19 19 18 18 19 17 15 13 10 8 8 10 12 12 11 9 7 5 4 5 5 4 4 4
11 14 17 14 22 24 28 14 14 9 9 9 6 7 10 9 10 13 21 23 19 19 20 21 20 19 19 19 19 18 16 14 12 10 9 9 11 13 12 10 8 6 4 5 5 4 4 3 4
14 17 14 18 23 26 22 6 10 11 13 8 13 7 14 9 12 20 23 21 19 19 18 22 20 18 17 17 17 15 14 13 11 10 10 11 13 14 12 10 7 5 5 5 6 5 5 5 5
20 22 16 21 24 26 21 10 11 16 14 11 9 10 16 14 16 19 21 21 19 19 17 20 19 17 16 15 15 14 12 12 11 11 11 13 14 14 12 10 7 5 5 5 6 7 6 6 6
19 15 21 24 24 24 23 14 12 17 19 14 18 13 16 18 15 17 20 20 19 18 17 21 19 19 17 16 14 13 12 12 11 12 12 14 14 13 12 10 8 7 6 6 7 7 6 6 6
24 15 24 25 20 25 18 16 15 19 19 3 4 7 22 23 18 17 19 19 19 18 17 19 20 20 19 17 15 13 12 12 12 12 13 14 14 13 12 10 9 8 8 7 7 7 7 8 9
23 15 19 26 25 15 13 9 17 6 13 6 16 2 20 24 23 20 20 20 19 18 18 19 18 19 17 16 16 15 14 14 14 14 15 14 14 14 13 12 11 10 9 9 8 8 9 9 10
19 17 26 21 8 12 2 14 13 9 14 11 9 5 10 17 21 21 21 22 21 20 19 19 19 19 17 15 16 17 16 15 16 16 16 16 12 12 11 13 11 11 11 10 10 11 11 12 11
30 23 20 24 4 6 20 11 14 8 14 17 19 19 13 15 18 20 19 20 21 20 19 19 20 19 18 16 14 16 14 15 16 16 16 16 13 13 14 11 14 14 13 12 11 13 13 13 10
25 28 34 20 12 15 17 28 15 13 19 9 3 8 15 16 20 21 20 20 21 21 20 20 20 20 21 17 16 15 15 15 14 16 18 16 16 15 13 13 11 12 11 11 11 10 11 12 14
28 23 25 26 23 19 20 27 19 16 14 14 7 7 11 18 20 22 20 21 20 21 21 21 20 20 22 23 16 16 16 15 15 15 18 17 15 15 14 14 13 13 11 12 11 12 13 14 15
19 28 28 26 19 18 15 25 28 24 23 22 18 16 13 17 21 22 18 17 20 20 20 20 20 20 19 23 21 18 17 16 17 15 16 19 17 17 15 14 14 14 14 13 13 13 15 15 15
35 22 16 18 27 19 17 23 25 28 24 17 20 22 17 17 16 28 27 21 19 19 19 20 20 20 19 20 24 19 16 17 16 16 17 17 19 17 16 14 14 13 12 14 15 15 15 16 17
23 12 16 22 31 13 14 29 31 35 23 28 25 23 22 16 16 17 20 15 18 19 19 19 19 21 22 21 19 18 18 16 17 18 18 19 19 21 18 15 14 12 11 11 11 12 13 15 17
21 12 25 27 31 13 18 18 31 22 26 29 21 24 25 21 19 17 17 16 17 18 17 20 20 20 21 20 18 18 18 19 18 20 19 18 19 17 18 14 13 13 10 12 13 13 14 15 16
20 30 31 27 29 23 19 21 17 13 28 33 35 22 26 30 24 22 20 18 17 18 18 18 20 21 21 18 17 17 17 21 20 22 21 18 18 19 19 13 13 14 11 11 13 13 13 15 17
32 24 30 20 20 23 21 20 16 20 22 27 28 22 23 22 24 23 21 21 21 19 21 25 24 22 20 18 17 16 20 20 18 20 22 19 18 17 16 13 12 11 11 13 13 13 15 16 17
26 23 18 24 13 19 23 23 19 18 26 26 27 26 19 19 18 20 21 22 21 22 24 27 26 26 23 18 18 17 17 19 18 19 24 20 21 19 17 15 12 12 12 12 14 13 14 16 16
23 20 11 21 14 14 16 23 21 22 24 33 33 32 28 18 12 16 20 21 22 23 26 26 25 26 26 20 18 16 16 16 18 21 24 23 22 19 17 16 15 14 14 9 12 11 12 14 16
22 18 15 17 16 15 19 9 22 20 22 20 27 18 16 16 14 16 15 16 17 17 18 19 20 24 26 25 19 21 19 19 19 20 20 18 17 17 18 15 13 13 8 12 13 13 13 13 15
19 19 18 11 16 13 23 10 12 24 20 20 18 24 12 12 9 9 10 9 8 9 11 13 18 20 21 26 23 23 22 19 17 18 22 23 20 19 16 14 13 11 11 11 15 15 16 12 13
19 19 14 15 14 15 17 15 11 13 17 23 24 21 16 9 6 4 5 5 5 5 9 11 14 17 19 19 22 22 21 20 21 22 23 18 16 17 17 14 12 11 12 13 13 13 12 12 13
21 13 11 12 13 12 20 16 11 18 18 17 16 17 11 8 5 3 1 2 3 4 5 8 11 13 15 17 17 18 19 20 21 25 19 18 15 13 15 14 12 11 11 12 13 13 12 13 12
24 20 13 13 14 15 11 9 13 13 14 8 17 13 8 7 5 2 3 2 0 1 1 4 7 9 11 13 14 15 17 17 17 21 15 15 14 14 14 17 14 13 14 15 15 15 16 14 15
24 20 25 13 10 8 14 10 6 13 13 12 14 12 8 7 5 4 6 6 7 8 7 6 5 4 4 6 11 11 12 13 13 14 15 13 13 12 14 16 17 17 18 19 20 20 21 21 22
22 21 19 11 12 13 14 16 12 16 15 13 12 12 8 7 6 7 6 7 8 9 11 11 9 9 8 7 7 7 9 9 8 8 11 13 14 14 15 14 18 20 20 23 24 23 24 26 27
17 19 18 13 12 8 11 5 22 19 18 15 11 11 8 6 6 5 7 6 7 9 9 9 7 7 5 4 4 5 5 6 7 9 10 12 14 16 17 19 19 22 25 27 29 30 32 30 29
19 16 20 11 16 11 6 6 5 16 14 16 13 8 7 4 4 5 5 5 6 7 7 7 6 5 3 2 0 2 5 7 9 12 12 13 15 16 18 20 23 25 28 31 33 36 34 35 36
Wind_Direction
263 302 284 257 247 232 246 233 260 142 192 72 286 270 341 65 62 112 145 134 145 151 159 165 164 163 162 165 175 174 173 169 163 158 145 135 139 150 154 149 140 141 142 144 141 126 115 111 117
261 262 248 260 241 248 231 241 204 231 68 285 208 228 248 64 68 107 132 145 148 148 155 162 163 161 160 160 173 173 173 170 170 171 163 156 155 161 160 158 152 150 149 149 147 135 122 118 123
253 245 260 230 236 245 250 214 160 177 165 232 229 265 93 60 90 127 148 145 152 146 152 162 164 163 162 163 170 172 172 175 177 176 177 174 169 170 167 164 160 155 150 148 146 141 137 130 131
241 231 243 253 243 230 257 286 168 150 197 206 244 159 82 86 119 144 140 148 147 148 154 161 165 165 164 163 167 172 175 180 182 185 188 185 179 175 171 167 164 161 156 155 157 155 155 155 159
226 246 232 229 236 254 230 207 280 209 209 197 196 161 114 117 129 134 144 148 147 150 161 164 165 165 165 164 166 170 178 185 188 191 193 189 183 178 174 174 174 174 173 174 177 179 182 186 190
227 228 239 235 228 237 257 258 217 245 212 196 206 179 132 137 142 141 149 146 150 154 162 165 165 165 167 166 168 171 179 189 192 191 190 187 183 181 181 184 186 189 192 193 197 200 203 207 212
233 220 236 245 233 224 236 218 251 247 242 218 209 215 132 147 154 148 151 147 154 158 157 165 169 171 172 172 171 176 181 186 188 187 186 185 184 186 190 193 198 205 210 213 219 224 228 230 234
226 246 240 240 251 234 217 225 223 238 245 146 243 204 162 151 155 153 153 155 159 160 163 165 174 176 177 177 177 177 181 182 185 186 187 188 190 194 199 204 212 220 225 228 233 239 253 257 260
224 242 236 231 233 256 231 214 218 254 281 218 193 341 95 147 153 159 160 163 165 166 170 169 171 177 176 184 185 182 183 185 187 189 190 192 198 203 210 216 222 228 235 238 241 246 247 253 264
224 237 220 241 252 248 272 219 220 209 227 232 220 157 147 156 161 169 169 170 171 172 174 176 174 178 176 185 196 191 192 192 194 197 198 198 195 217 210 241 236 238 240 243 248 252 256 260 261
209 230 232 238 359 234 300 257 254 238 252 224 208 195 178 175 180 181 180 177 176 176 177 181 176 182 177 183 197 190 195 196 200 202 210 198 208 214 211 228 242 239 241 249 254 259 259 265 255
228 215 250 259 244 249 276 309 238 259 246 348 206 317 186 191 192 190 188 179 179 178 180 182 182 186 181 186 194 195 194 199 202 205 213 203 197 215 214 220 233 258 241 255 231 253 259 253 254
227 224 225 261 219 243 270 290 294 247 267 280 227 237 239 205 199 201 194 180 181 181 183 184 189 191 191 182 200 197 199 207 207 212 217 206 212 215 221 219 221 231 235 243 244 250 251 260 266
214 227 239 251 263 248 240 260 296 280 252 264 258 248 226 217 206 201 195 190 180 185 186 188 191 203 201 200 191 206 205 209 208 214 219 219 214 223 222 228 230 230 236 240 249 253 257 265 268
205 207 217 235 255 253 252 262 251 266 267 247 265 244 238 218 224 203 197 192 192 194 193 194 197 207 210 213 207 205 212 209 218 215 220 224 223 221 224 228 232 233 234 239 245 249 257 264 267
206 180 221 229 235 222 176 243 244 249 305 293 240 256 226 217 223 231 239 174 204 207 203 204 206 210 219 213 213 212 214 219 217 222 221 219 223 215 228 220 228 229 232 244 253 261 266 269 272
176 197 227 227 206 156 195 240 234 271 289 288 263 229 254 221 219 214 215 202 206 207 203 204 206 209 216 217 213 219 219 222 225 227 223 226 223 221 212 218 224 232 230 246 254 258 261 269 276
197 210 224 218 186 180 199 242 222 256 266 274 283 245 221 222 224 215 219 222 217 215 210 204 208 208 213 215 217 220 224 230 221 229 224 220 222 219 222 213 219 229 232 249 256 261 262 265 271
203 220 221 246 190 187 213 226 203 219 259 260 287 268 252 239 227 222 217 225 224 222 224 223 214 212 209 210 218 222 225 228 231 229 235 219 222 218 223 214 233 236 232 241 251 263 274 279 282
237 234 215 226 194 205 205 220 229 214 213 236 258 265 261 240 247 235 238 241 214 224 223 227 221 216 220 209 214 222 227 229 230 227 232 216 216 211 213 209 215 231 234 247 249 256 266 272 276
230 240 200 227 159 209 240 213 218 210 219 224 224 243 224 235 233 249 238 234 230 226 228 227 225 225 224 201 210 212 213 215 218 223 221 224 215 215 209 215 202 221 232 237 274 277 271 279 282
214 220 216 207 182 209 207 230 190 200 205 208 252 225 226 233 230 241 209 220 219 221 225 223 224 218 223 218 210 212 209 213 221 213 215 209 202 203 213 221 217 226 222 233 244 270 275 276 282
224 197 225 223 222 251 186 220 236 188 202 205 212 235 219 214 217 191 198 193 202 206 207 212 207 210 206 229 204 222 214 223 219 208 208 202 205 208 212 211 214 232 247 252 257 259 266 264 272
218 210 192 227 228 226 223 209 193 185 203 186 195 213 200 175 199 183 181 202 190 208 213 203 202 208 212 218 217 216 218 212 212 202 205 199 201 200 198 207 221 243 252 253 257 269 270 273 264
205 187 195 202 217 228 204 226 226 189 174 187 191 167 152 183 195 210 189 242 235 223 224 212 210 212 215 218 225 221 218 212 203 200 201 195 199 205 218 216 233 244 254 240 253 259 260 261 268
203 195 214 188 206 213 220 212 215 145 110 76 126 137 166 200 119 122 58 49 52 77 185 207 210 213 218 220 224 222 215 207 203 207 202 201 208 219 229 240 232 241 235 256 253 256 261 256 262
192 216 232 279 289 238 161 107 84 116 143 162 147 142 150 140 135 120 97 94 93 84 80 99 129 155 176 198 204 201 201 192 192 206 199 207 219 224 227 236 245 240 247 248 255 257 255 261 262
204 202 218 236 256 221 162 167 182 169 165 164 143 148 148 139 129 122 111 104 97 92 91 97 108 118 126 137 154 176 190 203 210 204 214 217 221 232 241 239 244 244 245 248 249 250 257 262 259
200 206 220 223 220 217 239 161 135 166 167 160 160 151 153 140 123 123 110 106 101 98 96 98 103 109 113 134 174 202 212 228 245 250 253 257 257 254 256 257 253 252 254 253 251 249 249 250 258
206 214 201 220 215 241 254 84 20 129 146 137 150 152 129 125 124 114 112 105 96 92 91 85 92 108 98 98 210 256 250 256 257 256 262 264 266 266 265 264 263 261 259 258 258 258 255 257 259